Regional Weather Roundup
Issued by NWS

Home | Current Version | Previous Version | Text Only | Print | Product List | Glossary Off
Versions: 1 2 3 4 5 6 7 8 9 10 11 12 13 14 15 16 17 18 19 20 21 22 23 24 25 26 27 28 29 30 31 32 33 34 35 36 37 38 39 40 41 42 43 44 45 46 47 48 49 50

470
ASUS45 KTFX 230910
RWRMT
MONTANA REGIONAL WEATHER ROUNDUP
NATIONAL WEATHER SERVICE GREAT FALLS MT
300 AM MDT SUN JUL 23 2017

NOTE: "FAIR" INDICATES FEW OR NO CLOUDS BELOW 12000 FEET WITH NO
SIGNIFICANT WEATHER AND/OR OBSTRUCTIONS TO VISIBILITY.

MTZ001>007-043-231000-
WEST OF THE DIVIDE

CITY           SKY/WX    TMP DP  RH WIND       PRES   REMARKS
KALISPELL      CLEAR     53  48  83 CALM      30.07S
MISSOULA       CLEAR     63  47  55 CALM      30.10S
BUTTE          CLEAR     52  39  61 SE5       30.24F
MULLAN PASS    CLEAR     61  40  45 NW3       30.25F
ANACONDA         N/A     55  39  54 SW6       30.20F
DEER LODGE       N/A     54  43  66 CALM      30.21S
EUREKA           N/A     61  48  63 MISG        N/A
LIBBY            N/A     57  46  67 CALM      30.05F
$$

MTZ008-052>055-231000-
SOUTHWEST MONTANA

CITY           SKY/WX    TMP DP  RH WIND       PRES   REMARKS
BOZEMAN        CLEAR     53  40  61 SE8       30.16S
DILLON         CLEAR     61  33  35 S9        30.20S
W YELLOWSTONE  CLOUDY    43  36  75 CALM      30.31S
ENNIS          CLEAR     52  32  46 NE5       30.26S
THREE FORKS      N/A     53  43  69 CALM      30.12F
$$

MTZ009-010-012-014-046-048-049-054-231000-
EAST SLOPES AND CENTRAL MONTANA

CITY           SKY/WX    TMP DP  RH WIND       PRES   REMARKS
CUT BANK       CLEAR     64  43  46 W9        30.07F
GREAT FALLS    CLEAR     60  40  47 S9        30.08F
MALMSTROM AFB  CLEAR     58  41  53 S5        30.08S
HELENA         CLEAR     67  43  41 SW5       30.10F
CHOTEAU          N/A     63  41  45 SW7       30.11S
$$

MTZ011-013-016-021-045-047-050-051-231000-
NORTH CENTRAL MONTANA

CITY           SKY/WX    TMP DP  RH WIND       PRES   REMARKS
HAVRE          CLEAR     61  44  53 CALM      30.00S
LEWISTOWN      CLEAR     58  39  49 SE7       30.12F
N BAR RANCH      N/A     61  36  39 W7        30.17S
CHINOOK          N/A     64  46  52 E5        30.00S
$$

MTZ017>020-022>027-061-062-231000-
NORTHEAST MONTANA

CITY           SKY/WX    TMP DP  RH WIND       PRES   REMARKS
GLASGOW        CLEAR     61  47  59 MISG      30.03S
JORDAN           N/A     58  42  55 CALM      30.05F
SIDNEY         CLEAR     57  46  66 NW5       30.05S
WOLF POINT     CLEAR     60  46  59 NE3       30.04F
MALTA          CLEAR     63  46  55 NE6       30.02S
PLENTYWOOD       N/A     61  54  77 CALM      30.06R
POPLAR           N/A     57  46  67 N3        30.05S
$$

MTZ028>42-056>058-231000-
SOUTHCENTRAL AND SOUTHEAST MONTANA

CITY           SKY/WX    TMP DP  RH WIND       PRES   REMARKS
BAKER          CLEAR     57  41  55 SE3       30.10S
BILLINGS       CLEAR     69  34  27 SW3       30.08F
LIVINGSTON     CLEAR     51  34  52 CALM      30.16F
MILES CITY     CLEAR     65  41  41 NE6       30.06F
BIG TIMBER     PTCLDY    57  36  44 SW9       30.17F
FORSYTH          N/A     66  39  37 CALM      30.05F
LAUREL           N/A     62  31  31 CALM      30.07F
$$

REGIONAL REPORTS...DAKOTAS

CITY           SKY/WX    TMP DP  RH WIND       PRES   REMARKS
WILLISTON      CLEAR     57  52  83 CALM      30.05S
MINOT          CLEAR     57  53  86 W6        30.02S
DICKINSON      CLEAR     54  51  90 S6        30.07R
BEACH            N/A     52  50  93 S5        30.12S
CROSBY           N/A     54  54 100 S6        30.06R
TIOGA            N/A     52  52 100 CALM      30.08S
WATFORD CITY     N/A     54  48  82 CALM      30.06R
BISMARCK       CLEAR     61  56  83 NW5       30.04S
GRAND FORKS    CLOUDY    64  62  93 N10       29.91S
FARGO          CLEAR     59  57  93 W5        29.92R
BUFFALO SD       N/A     67  45  45 CALM      30.04F
RAPID CITY     CLEAR     60  44  55 N6        30.11F
$$

REGIONAL REPORTS...WYOMING/IDAHO/WASHINGTON

CITY           SKY/WX    TMP DP  RH WIND       PRES   REMARKS
GILLETTE       CLEAR     62  37  39 S5        30.14F
SHERIDAN       CLEAR     58  42  55 N3        30.11F
BUFFALO WY     CLEAR     63  33  32 W9        30.18F
CODY           CLEAR     66  35  31 SW8       30.19F
YELLOWSTONE LA   N/A     42  35  76 NW3       30.40F
IDAHO FALLS    CLEAR     52  47  83 CALM      30.15F
BOISE          CLEAR     68  39  34 SE7       30.00S
SPOKANE        CLEAR     69  48  47 S6        30.04S
$$

REGIONAL REPORTS...ALBERTA

CITY           SKY/WX    TMP DP  RH WIND       PRES   REMARKS
EDMONTON       CLEAR     61  55  82 NW5       29.92F
CALGARY        MOCLDY    63  46  55 SE2       30.01F
LETHBRIDGE     CLEAR     57  48  72 S8        30.01F
MEDICINE HAT   CLEAR     61  50  67 SW7       29.95F
WATERTON GATE    N/A     57  46  67 SW8         N/A
CARDSTON         N/A     61  46  59 SW7         N/A
MILK RIVER       N/A     57  48  72 W2          N/A
$$

REGIONAL REPORTS...SASKATCHEWAN

CITY           SKY/WX    TMP DP  RH WIND       PRES   REMARKS
SWIFT CURRENT  CLEAR     59  50  72 S10       30.01F
REGINA         CLEAR     57  54  88 S9        30.03R
SASKATOON      PTCLDY    59  55  88 S5        29.97S
CYPRESS HILLS    N/A     59  45  58 SE7         N/A
VAL MARIE        N/A     50  43  76 NE3         N/A
ROCKGLEN         N/A     55  48  76 S6          N/A
$$




USA.gov is the U.S. government's official web portal to all federal, state and local government web resources and services.